Commit graph

44 commits

Author SHA1 Message Date
cca56420af chore: update exports and package-lock 2025-07-10 20:36:42 +08:00
f5a12d3dd1
Merge pull request #2 from afiqzudinhadi/drizzle-supabase
drizzle supabase
2025-07-10 14:49:08 +08:00
2585af6a28 feat: refresh product page 2025-07-10 14:47:08 +08:00
3f9b0d57d1 chore: typescript formatting 2025-07-10 14:47:08 +08:00
ff267f7530 chore: add db dependency and check for env DB_URL 2025-07-10 14:47:08 +08:00
082bd78bf7 feat: remix integration 2025-07-10 14:47:06 +08:00
7045e582c7 chore: eslint 2025-07-10 14:45:48 +08:00
6cb6eb503b chore: remove ununsed import 2025-07-10 14:45:48 +08:00
7d3ce5c604 feat: init next-template integration with drizzle 2025-07-10 14:45:44 +08:00
9e418621e0 chore: tsconfig path 2025-07-10 14:45:22 +08:00
5d92336500 chore: import meta definition 2025-07-10 14:45:22 +08:00
2048d539d3 feat: add products routes 2025-07-10 14:45:22 +08:00
aca6a4da98 feat: init drizzle implementation for backend (express) and frontend (vite-react) 2025-07-10 14:45:19 +08:00
fc3a21263a chore: add lint 2025-07-10 14:42:43 +08:00
52bfa28fcd chore: update table var to follow table name in db 2025-07-10 14:42:43 +08:00
a6fc74e851 feat: db init 2025-07-10 14:42:40 +08:00
0b1cbef59e
Merge pull request #1 from afiqzudinhadi/clerk
clerk
2025-07-08 21:45:30 +08:00
2a199f3679 docs: update root and @repo/auth readme 2025-07-08 21:39:27 +08:00
eb1dec1d40 docs: add readme in packages/auth and add .env.example in each repo 2025-07-08 21:39:27 +08:00
3fcf8da406 chore: cleanup and make ui looks nicer 2025-07-08 21:39:27 +08:00
a5faf21953 feat: add clerk integration to next-template 2025-07-08 21:39:27 +08:00
14ef2719c7 feat: add clerk to vite-template 2025-07-08 21:39:27 +08:00
da8aaa1db6 feat: add clerk integration to remix-template 2025-07-08 21:39:27 +08:00
e70d4d34c2 feat: add clerk-helpers package 2025-07-08 21:39:27 +08:00
17d1bf065e docs: add usage 2025-06-26 11:39:52 +08:00
ecac6e5284 docs: update @repo/ui readme 2025-06-22 20:56:14 +08:00
d8cc5f0ac9 docs: update root readme and add readme @repo/ui 2025-06-22 20:44:04 +08:00
9d53f3e854 doc: update readme 2025-06-21 22:47:31 +08:00
0039016707 chore: fix shadcn imports again 2025-06-20 23:12:56 +08:00
614ace11b0 chore: use shared (packages/ui) css styles for react component 2025-06-20 17:56:56 +08:00
17ab887795 chore: update imports in pages 2025-06-20 17:46:58 +08:00
392fc86ba8 chore: add clean to npm script 2025-06-20 17:45:54 +08:00
30f3b488d5 chore: add extend tailwindcss and postcss for shadcn in next-template 2025-06-20 17:44:42 +08:00
b13047f440 chore: update import from package/ui 2025-06-20 17:43:56 +08:00
93065a1a84 chore: extend web/remix tsconfig to use package/remix.json 2025-06-20 17:42:42 +08:00
5805c81cad chore: use tsup to build ui instead of bunchee 2025-06-20 17:40:59 +08:00
0b21e5a4e5 chore: add taiwind config for shadcn remix 2025-06-20 10:39:08 +08:00
99627e396d chore: add shadcn integration for remix 2025-06-19 22:45:11 +08:00
c011186c37 chore: rename to template 2025-06-19 16:51:10 +08:00
063dfe39e9 chore: add shadcn 2025-06-19 03:46:59 +08:00
ce1088e3ec init 2025-06-19 03:15:30 +08:00
Turbobot
8c2a4154bc feat(create-turbo): apply package-manager transform 2025-06-19 02:40:01 +08:00
Turbobot
b1899c28fb feat(create-turbo): apply official-starter transform 2025-06-19 02:40:01 +08:00
Turbobot
4625c93980 feat(create-turbo): create kitchen-sink 2025-06-19 02:40:01 +08:00